Date String (YYYY-MM-DD hh:mm:ss) UTC,Instrument flags,Ambient pressure (hPa),Sample flow (lpm),Bypass flow (lpm),Sample temperature (°C),Ambient temperature (°C),ASC tube jacket temperature (°C),LED temperature (°C),Box temperature (°C),Sample RH (%),Span deviation,Mass concentration (μg/m³),Mass concentration (μg/m³),Mass concentration (μg/m³)
DateTimeUTC,F1_M11,P_M11,Q1_M11,Q2_M11,T1_M11,T2_M11,T3_M11,T4_M11,T5_M11,U1_M11,ZSPAN_M11,X0_M11,X2_M11,X1_M11
2022-07-31 13:00:00,,0829.9,5.01,0.00,29.9,28.6,00.0,38.6,31.8,21.6,0000.0,0009.36,0005.38,0005.07
2022-07-31 13:01:00,,0829.9,4.99,0.00,29.9,27.8,00.0,38.6,31.5,22.3,0000.0,0009.36,0005.36,0005.07
2022-07-31 13:02:00,,0829.9,5.00,0.00,29.8,27.4,00.0,38.6,31.5,21.6,0000.0,0009.27,0005.33,0005.07
2022-07-31 13:03:00,,0830.0,4.99,0.00,29.8,27.4,00.0,38.6,31.5,21.6,0000.0,0009.30,0005.35,0005.07
2022-07-31 13:04:00,,0829.9,5.00,0.00,29.7,27.5,00.0,38.5,31.4,21.9,0000.0,0009.26,0005.38,0005.07
2022-07-31 13:05:00,,0829.9,5.01,0.00,29.7,27.6,00.0,38.5,31.4,21.9,0000.0,0008.85,0005.37,0005.06
2022-07-31 13:06:00,,0829.9,5.00,0.00,29.7,27.8,00.0,38.5,31.4,22.1,0000.0,0008.69,0005.40,0005.08
2022-07-31 13:07:00,,0829.9,5.01,0.00,29.7,27.9,00.0,38.5,31.5,21.9,0000.0,0008.93,0005.41,0005.07
2022-07-31 13:08:00,,0829.9,4.99,0.00,29.7,28.1,00.0,38.5,31.5,21.8,0000.0,0009.00,0005.42,0005.06
2022-07-31 13:09:00,,0829.9,4.99,0.00,29.7,28.2,00.0,38.5,31.5,21.7,0000.0,0008.99,0005.42,0005.06
2022-07-31 13:10:00,,0829.9,5.01,0.00,29.7,28.3,00.0,38.5,31.5,21.6,0000.0,0009.01,0005.45,0005.06
2022-07-31 13:11:00,,0830.0,4.99,0.00,29.7,28.4,00.0,38.5,31.6,21.6,0000.0,0008.32,0005.45,0005.05
2022-07-31 13:12:00,,0830.0,5.01,0.00,29.7,28.5,00.0,38.5,31.6,21.7,0000.0,0008.28,0005.43,0005.05
2022-07-31 13:13:00,,0830.0,4.99,0.00,29.7,28.6,00.0,38.5,31.6,21.7,0000.0,0008.41,0005.45,0005.06
2022-07-31 13:14:00,,0830.1,4.99,0.00,29.8,28.6,00.0,38.5,31.7,21.7,0000.0,0008.28,0005.42,0005.06
2022-07-31 13:15:00,,0830.1,5.01,0.00,29.8,28.7,00.0,38.6,31.7,21.6,0000.0,0008.16,0005.40,0005.06
2022-07-31 13:16:00,,0830.1,4.99,0.00,29.8,28.8,00.0,38.6,31.8,21.8,0000.0,0008.24,0005.44,0005.08
2022-07-31 13:17:00,,0830.1,5.01,0.00,29.8,28.8,00.0,38.6,31.8,22.8,0000.0,0008.29,0005.43,0005.07
2022-07-31 13:18:00,,0830.1,4.99,0.00,29.9,28.9,00.0,38.6,31.8,25.4,0000.0,0008.21,0005.44,0005.07
2022-07-31 13:19:00,,0830.1,5.00,0.00,29.9,28.9,00.0,38.6,31.9,28.2,0000.0,0008.19,0005.44,0005.07
2022-07-31 13:20:00,,0830.1,5.00,0.00,29.9,29.0,00.0,38.7,31.9,26.4,0000.0,0008.21,0005.42,0005.05
2022-07-31 13:21:00,,0830.1,5.00,0.00,30.0,29.0,00.0,38.7,31.9,23.8,0000.0,0008.16,0005.36,0005.02
2022-07-31 13:22:00,,0830.1,5.00,0.00,30.0,28.6,00.0,38.7,31.9,22.9,0000.0,0008.08,0005.32,0005.00
2022-07-31 13:23:00,,0830.1,5.00,0.00,29.9,27.9,00.0,38.6,31.7,23.3,0000.0,0008.03,0005.31,0004.98
2022-07-31 13:24:00,,0830.1,5.00,0.00,29.9,27.6,00.0,38.6,31.6,23.5,0000.0,0007.91,0005.27,0004.95
2022-07-31 13:25:00,,0830.1,4.99,0.00,29.8,27.6,00.0,38.6,31.5,23.7,0000.0,0007.98,0005.25,0004.93
2022-07-31 13:26:00,,0830.1,5.00,0.00,29.8,27.7,00.0,38.6,31.5,23.2,0000.0,0008.05,0005.25,0004.90
2022-07-31 13:27:00,,0830.1,5.00,0.00,29.8,27.8,00.0,38.6,31.5,24.0,0000.0,0008.00,0005.22,0004.87
2022-07-31 13:28:00,,0830.1,5.01,0.00,29.7,28.0,00.0,38.6,31.5,23.0,0000.0,0007.88,0005.18,0004.85
2022-07-31 13:29:00,,0830.1,4.99,0.00,29.7,28.1,00.0,38.6,31.6,23.7,0000.0,0008.04,0005.13,0004.82
2022-07-31 13:30:00,,0830.1,5.00,0.00,29.7,28.2,00.0,38.6,31.6,24.2,0000.0,0008.18,0005.08,0004.79
2022-07-31 13:31:00,,0830.0,5.01,0.00,29.8,28.4,00.0,38.6,31.7,24.0,0000.0,0008.14,0005.08,0004.79
2022-07-31 13:32:00,,0830.1,4.99,0.00,29.8,28.5,00.0,38.6,31.7,24.3,0000.0,0008.19,0005.10,0004.79
2022-07-31 13:33:00,,0830.1,5.01,0.00,29.8,28.6,00.0,38.6,31.7,23.9,0000.0,0008.66,0005.10,0004.79
2022-07-31 13:34:00,,0830.1,4.99,0.00,29.8,28.6,00.0,38.6,31.7,23.3,0000.0,0008.70,0005.09,0004.79
2022-07-31 13:35:00,,0830.1,5.01,0.00,29.8,28.7,00.0,38.6,31.7,23.0,0000.0,0009.04,0005.10,0004.79
2022-07-31 13:36:00,,0830.1,4.99,0.00,29.9,28.8,00.0,38.6,31.8,23.6,0000.0,0009.39,0005.13,0004.80
2022-07-31 13:37:00,,0830.1,5.01,0.00,29.9,28.9,00.0,38.6,31.8,23.5,0000.0,0009.32,0005.13,0004.80
2022-07-31 13:38:00,,0830.1,4.99,0.00,29.9,28.9,00.0,38.7,31.9,23.2,0000.0,0009.41,0005.12,0004.80
2022-07-31 13:39:00,,0830.1,5.00,0.00,29.9,29.0,00.0,38.7,31.9,22.9,0000.0,0009.83,0005.12,0004.79
2022-07-31 13:40:00,,0830.1,5.00,0.00,30.0,28.7,00.0,38.7,31.9,23.6,0000.0,0009.59,0005.12,0004.79
2022-07-31 13:41:00,,0830.1,5.01,0.00,29.9,28.0,00.0,38.7,31.7,23.9,0000.0,0009.54,0005.14,0004.81
2022-07-31 13:42:00,,0830.1,4.99,0.00,29.9,27.7,00.0,38.6,31.6,23.3,0000.0,0010.03,0005.18,0004.82
2022-07-31 13:43:00,,0830.1,4.99,0.00,29.8,27.7,00.0,38.6,31.6,22.9,0000.0,0010.19,0005.17,0004.82
2022-07-31 13:44:00,,0830.1,5.00,0.00,29.8,27.8,00.0,38.6,31.5,22.8,0000.0,0009.73,0005.17,0004.83
2022-07-31 13:45:00,,0830.1,5.00,0.00,29.8,27.9,00.0,38.6,31.5,23.5,0000.0,0009.74,0005.19,0004.84
2022-07-31 13:46:00,,0830.1,5.00,0.00,29.8,28.0,00.0,38.6,31.6,23.5,0000.0,0009.35,0005.17,0004.84
2022-07-31 13:47:00,,0830.1,5.00,0.00,29.7,28.2,00.0,38.6,31.6,22.7,0000.0,0009.01,0005.15,0004.84
2022-07-31 13:48:00,,0830.2,4.99,0.00,29.8,28.3,00.0,38.6,31.6,22.6,0000.0,0009.02,0005.15,0004.84
2022-07-31 13:49:00,,0830.2,5.00,0.00,29.8,28.4,00.0,38.6,31.7,22.3,0000.0,0008.90,0005.12,0004.84
2022-07-31 13:50:00,,0830.2,5.00,0.00,29.8,28.5,00.0,38.6,31.7,22.6,0000.0,0008.51,0005.14,0004.85
2022-07-31 13:51:00,,0830.3,4.99,0.00,29.8,28.6,00.0,38.6,31.7,22.9,0000.0,0008.55,0005.19,0004.88
2022-07-31 13:52:00,,0830.3,5.01,0.00,29.8,28.7,00.0,38.6,31.7,22.7,0000.0,0008.40,0005.23,0004.91
2022-07-31 13:53:00,,0830.2,5.00,0.00,29.9,28.8,00.0,38.6,31.8,23.5,0000.0,0008.10,0005.23,0004.94
2022-07-31 13:54:00,,0830.2,4.99,0.00,29.9,28.8,00.0,38.6,31.8,23.3,0000.0,0007.82,0005.27,0004.98
2022-07-31 13:55:00,,0830.2,5.01,0.00,29.9,28.9,00.0,38.7,31.9,24.5,0000.0,0007.95,0005.33,0005.02
2022-07-31 13:56:00,,0830.3,5.02,0.00,29.9,28.9,00.0,38.7,31.9,25.0,0000.0,0008.15,0005.36,0005.04
2022-07-31 13:57:00,,0830.3,5.00,0.00,29.9,28.4,00.0,38.6,31.8,23.6,0000.0,0008.69,0005.42,0005.09
2022-07-31 13:58:00,,0830.2,4.99,0.00,29.9,27.8,00.0,38.6,31.7,24.5,0000.0,0008.80,0005.46,0005.13
2022-07-31 13:59:00,,0830.3,5.00,0.00,29.9,27.7,00.0,38.6,31.6,23.6,0000.0,0009.05,0005.50,0005.17
